User: anonymous   Login
Location: Unspecified
(0.0000°N, 0.0000°E)
Time: 04:51:08
(UTC+01:00)
Language:

Cosmos 1892 Rocket - Orbit

View from above orbital plane
View from above orbital plane
View from above satellite
View from above satellite

Ground track
Ground track

The orbit data is extracted from the following two-line orbital elements,

1 18422U 87088B   16044.80174441  .00000205  00000-0  22421-4 0  9994
2 18422  82.5106 275.4132 0018191 249.6166 156.8877 14.82831973529294
Epoch (UTC): 13 February 2016 19:14:30
Eccentricity: 0.0018191
inclination: 82.5106°
perigee height: 607 km
apogee height: 633 km
right ascension of ascending node: 275.4132°
argument of perigee: 249.6166°
revolutions per day: 14.82831973
mean anomaly at epoch: 156.8877°
orbit number at epoch: 52929

The dashed part of the orbit path shows where the satellite is in the earth's shadow,  

DLR